Preview of NWS' New Version of Forecast
This preview is not operational and should not be used for support decisions.

Regional Weather Roundup (RWR)

Issued by National Weather Service (NWS)

                            
000
ASUS45 KBOU 191410
RWRCO 

WEATHER ROUNDUP FOR COLORADO
NATIONAL WEATHER SERVICE DENVER/BOULDER CO
800 AM MDT FRI APR 19 2019

NOTE: "FAIR" INDICATES FEW OR NO CLOUDS BELOW 12000 FEET WITH NO
SIGNIFICANT WEATHER AND/OR OBSTRUCTIONS TO VISIBILITY.

COZ001>005-013-030-031-191500-
...NORTHWEST COLORADO...
  
CITY           SKY/WX    TMP DP  RH WIND       PRES   REMARKS
CRAIG          FAIR      38  31  76 CALM      30.31R                  
HAYDEN         FAIR      41  31  67 E5        30.32S                  
MEEKER         FAIR      39  29  67 E5        30.32R                  
RANGELY        FAIR      40  32  75 CALM      30.28R                  
RABBIT EARS PA FAIR      28  28 100 W8G16     30.39R WCI  20          
STEAMBOAT SPGS FAIR      34  30  85 CALM      30.32S                  
WALDEN         FAIR      37  27  65 SE5       30.34R                  
$$

COZ006>008-011-191500-
...WEST CENTRAL VALLEYS...
  
CITY           SKY/WX    TMP DP  RH WIND       PRES   REMARKS
GRAND JUNCTION FAIR      49  30  48 SE9       30.26R                  
MONTROSE       FAIR      43  27  53 S6        30.31R                  
EAGLE          FAIR      39  27  62 CALM      30.36R                  
RIFLE          FAIR      40  30  67 CALM      30.31R                  
DELTA          FAIR      45  29  54 CALM      30.30R                  
NUCLA          FAIR      43  27  52 E5        30.34R                  
$$

COZ017>023-064>068-191500-
...SOUTHWEST COLORADO...
  
CITY           SKY/WX    TMP DP  RH WIND       PRES   REMARKS
DURANGO        FAIR      39  20  46 CALM      30.31R                  
CORTEZ         FAIR      41  28  60 NE5       30.30R                  
PAGOSA SPRINGS FAIR      44  24  47 NW3       30.34R                  
TELLURIDE      FAIR      36  23  60 CALM      30.42R                  
WOLF CREEK PAS FAIR      30  18  59 NW10G16   30.52S WCI  21          
$$

COZ009-010-012-014-032>034-037-058>063-191500-
...CENTRAL COLORADO...
  
CITY           SKY/WX    TMP DP  RH WIND       PRES   REMARKS
ASPEN          FAIR      39  24  55 VRB3      30.34S                  
BUENA VISTA    FAIR      42  23  46 NW13      30.30F                  
COPPER MTN     FAIR      30  23  74 MISG      30.44R                  
BERTHOUD PASS  FAIR      21  10  63 NW15G39   30.40R WCI   8          
COTTONWOOD PAS FAIR      43  16  33 W17G26    30.37R                  
GUNNISON       FAIR      32  26  78 CALM      30.38R                  
GRANBY         FAIR      35  28  75 N3        30.37R                  
KREMMLING      FAIR      34  28  80 CALM      30.36R                  
LEADVILLE      FAIR      33  21  61 N9        30.36S WCI  25          
MONARCH PASS   FAIR      30  18  59 NW14      30.55R WCI  20          
SALIDA         FAIR      40  23  50 CALM      30.38R                  
SUNLIGHT       FAIR      32  18  55 N3        30.46S                  
WILKERSON PASS FAIR      32  18  55 NW7       30.40S WCI  26          
$$

COZ069>075-191500-
...SAN LUIS VALLEY/SANGRE DE CRISTO MOUNTAINS...
  
CITY           SKY/WX    TMP DP  RH WIND       PRES   REMARKS
ALAMOSA        FAIR      38  16  40 CALM      30.33R                  
DEL NORTE      FAIR      41  22  46 SW6       30.35R                  
LA VETA PASS   NOT AVBL                                               
SAGUACHE       FAIR      45  23  42 CALM      30.34R                  
$$

COZ035-036-038>040-191500-
...NORTHERN COLORADO FRONT RANGE...
  
CITY           SKY/WX    TMP DP  RH WIND       PRES   REMARKS
DENVER INTL AP FAIR      47  28  47 S6        30.18R                  
AURORA         MOSUNNY   46  28  49 S8        30.19R                  
FRONT RANGE AP MOSUNNY   48  34  57 S7        30.19R                  
ERIE MUNI ARPT FAIR      42  31  64 CALM      30.23R                  
BOULDER MUN AP FAIR      43  30  61 CALM      30.17R                  
CENTENNIAL     FAIR      48  29  47 SE6       30.19R                  
BROOMFIELD     SUNNY     45  28  53 SW5       30.18F                  
FORT COLLINS   FAIR      43  32  65 NE3       30.18R                  
LONGMONT       FAIR      46  34  64 CALM      30.19S                  
$$

COZ041-046-047-076>085-087-088-191500-
...PIKES PEAK/PALMER DIVIDE AND SOUTHERN FOOTHILLS...
  
CITY           SKY/WX    TMP DP  RH WIND       PRES   REMARKS
COLO. SPRINGS  FAIR      45  24  43 CALM      30.24R                  
A. F. ACADEMY  FAIR      38  24  57 N5        30.22R                  
SCHRIEVER AFB  NOT AVBL                                               
CHEYENNE MTN   FAIR      44  26  49 CALM      30.19R                  
ELLICOTT         N/A    N/A N/A N/A CALM      30.23R                  
FALCON         FAIR      43  21  41 SW9       30.26R                  
FORT CARSON    FAIR      42  27  54 N5        30.24R                  
LIMON          FAIR      37  29  72 CALM      30.21S                  
MONUMENT HILL  FAIR      43  28  56 S7        30.25R                  
CANON CITY     NOT AVBL                                               
WALSENBURG     NOT AVBL                                               
TRINIDAD       FAIR      44  32  62 SW14      30.25R                  
$$

COZ042>045-048>051-090-091-191500-
...NORTHEAST COLORADO...
  
CITY           SKY/WX    TMP DP  RH WIND       PRES   REMARKS
GREELEY ARPT   FAIR      42  29  59 CALM      30.19R                  
AKRON          FAIR      46  27  47 SW9       30.17S                  
BURLINGTON     FAIR      44  29  55 W12       30.20S                  
WRAY           FAIR      39  32  75 SW9       30.18F                  
YUMA           NOT AVBL                                               
STERLING       FAIR      37  32  81 SW7       30.16S                  
HOLYOKE        FAIR      43  34  70 W9        30.18S                  
FORT MORGAN    NOT AVBL                                               
$$

COZ086-089-092>099-191500-
...SOUTHEAST COLORADO...
  
CITY           SKY/WX    TMP DP  RH WIND       PRES   REMARKS
PUEBLO         FAIR      40  27  59 CALM      30.23R                  
LA JUNTA       FAIR      43  26  51 W8        30.23F                  
LAMAR          FAIR      38  29  70 W3        30.22R                  
SPRINGFIELD      N/A     46  29  51 W3        30.23R                  
$$